Morristown, NJ

6:43 AM EDT on May 24, 2017 (GMT -0400)
Morristown Municipal

Weather History for KMMU - March, 2012

Change the Weather History Date:

Monday, March 26, 2012

  Actual Average Record
Temperature  
Mean Temperature 43 °F -  
Max Temperature 53 °F 53 °F 78 °F (1963)
Min Temperature 33 °F 30 °F 16 °F (1974)
Degree Days  
Heating Degree Days 22    
Moisture  
Dew Point 28 °F    
Average Humidity 64    
Maximum Humidity 100    
Minimum Humidity 20    
Precipitation  
Precipitation 0.00 in - - ()
Sea Level Pressure  
Sea Level Pressure 29.84 in    
Wind  
Wind Speed 5 mph (NNW)    
Max Wind Speed 23 mph    
Max Gust Speed 43 mph    
Visibility 11 miles    
Events      
Averages and records for this station are not official NWS values.
T = Trace of Precipitation, MM = Missing Value Source: NWS Daily Summary

Daily Weather History Graph

Daily Weather History Graph

Search for Another Location

Airport or City:

Trip Planner

Search our weather history database for the weather conditions in past years. The results will help you decide how hot, cold, wet, or windy it might be!

Date:

Astronomy

Mar. 26, 2012 Rise Set
Actual Time 6:50 AM EDT 7:16 PM EDT
Civil Twilight 6:22 AM EDT 7:44 PM EDT
Nautical Twilight 5:50 AM EDT 8:16 PM EDT
Astronomical Twilight 5:17 AM EDT 8:49 PM EDT
Moon 8:36 AM EDT (3/26) 11:26 PM EDT (3/26)
Length of Visible Light 13h 21m
Length of Day
12h 26m
Waxing Crescent, 14% of the Moon is Illuminated
Mar 26
Waxing Crescent
Mar 30
First Quarter
Apr 6
Full
Apr 13
Last Quarter
Apr 21
New

Hourly Weather History & Observations

Time (EDT) Temp. Windchill Dew Point Humidity Pressure Visibility Wind Dir Wind Speed Gust Speed Precip Events Conditions
12:15 AM 44.6 °F - 42.8 °F 93% 29.75 in 10.0 mi Calm Calm - N/A   Clear
12:35 AM 42.8 °F - 42.8 °F 100% 29.75 in 10.0 mi Calm Calm - N/A   Scattered Clouds
12:55 AM 44.6 °F - 42.8 °F 93% 29.76 in 10.0 mi Calm Calm - N/A   Overcast
1:15 AM 46.4 °F - 44.6 °F 93% 29.75 in 10.0 mi Calm Calm - N/A   Overcast
1:35 AM 46.4 °F - 44.6 °F 93% 29.75 in 10.0 mi Calm Calm - N/A   Overcast
1:55 AM 46.4 °F - 44.6 °F 93% 29.74 in 10.0 mi Calm Calm - N/A   Overcast
2:15 AM 44.6 °F - 44.6 °F 100% 29.74 in 10.0 mi Calm Calm - N/A   Scattered Clouds
2:35 AM 44.6 °F - 42.8 °F 93% 29.72 in 10.0 mi Calm Calm - N/A   Clear
2:55 AM 42.8 °F - 41.0 °F 93% 29.72 in 10.0 mi Calm Calm - N/A   Clear
3:15 AM 41.0 °F - 41.0 °F 100% 29.72 in 10.0 mi Calm Calm - N/A   Clear
3:35 AM 39.2 °F 37.0 °F 39.2 °F 100% 29.71 in 10.0 mi NNE 3.5 mph - N/A   Clear
3:55 AM 41.0 °F - 41.0 °F 100% 29.71 in 10.0 mi Calm Calm - N/A   Clear
4:15 AM 39.2 °F - 39.2 °F 100% 29.70 in 10.0 mi Calm Calm - N/A   Scattered Clouds
4:35 AM 39.2 °F - 39.2 °F 100% 29.70 in 10.0 mi Calm Calm - N/A   Clear
4:55 AM 37.4 °F - 37.4 °F 100% 29.70 in 7.0 mi Calm Calm - N/A   Clear
5:15 AM 37.4 °F - 37.4 °F 100% 29.70 in 10.0 mi Calm Calm - N/A   Clear
5:35 AM 39.2 °F - 39.2 °F 100% 29.70 in 10.0 mi Calm Calm - N/A   Clear
5:55 AM 37.4 °F - 37.4 °F 100% 29.70 in 10.0 mi Calm Calm - N/A   Clear
6:15 AM 48.2 °F - 42.8 °F 82% 29.71 in 10.0 mi NW 4.6 mph - N/A   Clear
6:35 AM 51.8 °F - 39.2 °F 62% 29.72 in 10.0 mi NW 10.4 mph 16.1 mph N/A   Clear
6:45 AM 53.6 °F - 37.4 °F 54% 29.72 in 10.0 mi NNW 20.7 mph - N/A   Partly Cloudy
7:45 AM 51.8 °F - 37.4 °F 58% 29.76 in 10.0 mi North 11.5 mph 20.7 mph N/A   Scattered Clouds
8:45 AM 51.8 °F - 37.4 °F 58% 29.79 in 10.0 mi North 8.1 mph 32.2 mph N/A   Scattered Clouds
9:45 AM 51.8 °F - 32.0 °F 47% 29.82 in 10.0 mi NNW 17.3 mph 31.1 mph N/A   Scattered Clouds
10:45 AM 51.8 °F - 26.6 °F 38% 29.84 in 10.0 mi North 20.7 mph 39.1 mph N/A   Partly Cloudy
11:45 AM 50.0 °F - 19.4 °F 30% 29.87 in 20.0 mi North 17.3 mph 41.4 mph N/A   Partly Cloudy
12:45 PM 50.0 °F - 15.8 °F 26% 29.87 in 10.0 mi NNW 15.0 mph 35.7 mph N/A   Clear
1:45 PM 48.2 °F - 12.2 °F 24% 29.89 in 10.0 mi North 20.7 mph 38.0 mph N/A   Clear
2:45 PM 48.2 °F - 12.2 °F 24% 29.89 in 20.0 mi North 16.1 mph 25.3 mph N/A   Clear
3:45 PM 48.2 °F - 8.6 °F 20% 29.90 in 10.0 mi NNW 17.3 mph 42.6 mph N/A   Clear
4:45 PM 46.4 °F 39.5 °F 10.4 °F 23% 29.92 in 10.0 mi North 17.3 mph 42.6 mph N/A   Clear
5:45 PM 42.8 °F 33.5 °F 5.0 °F 21% 29.96 in 20.0 mi NW 23.0 mph 29.9 mph N/A   Clear
6:45 PM 41.0 °F 32.5 °F 5.0 °F 23% 30.00 in 20.0 mi North 17.3 mph 24.2 mph N/A   Clear
7:45 PM 39.2 °F 30.8 °F 3.2 °F 22% 30.04 in 10.0 mi NNW 15.0 mph 28.8 mph N/A   Clear
8:45 PM 37.4 °F 28.5 °F 5.0 °F 26% 30.08 in 10.0 mi NNW 15.0 mph 28.8 mph N/A   Clear
9:45 PM 35.6 °F 27.5 °F 6.8 °F 30% 30.12 in 10.0 mi North 11.5 mph 27.6 mph N/A   Clear
10:55 PM 33.8 °F 23.5 °F 6.8 °F 32% 30.12 in 10.0 mi NW 16.1 mph 25.3 mph N/A   Clear
11:15 PM 33.8 °F 25.3 °F 6.8 °F 32% 30.13 in 10.0 mi NNW 11.5 mph 24.2 mph N/A   Clear
11:35 PM 33.8 °F 24.3 °F 6.8 °F 32% 30.12 in 10.0 mi NNW 13.8 mph 27.6 mph N/A   Clear
11:55 PM 33.8 °F 23.5 °F 6.8 °F 32% 30.13 in 10.0 mi NNW 16.1 mph 21.9 mph N/A   Clear